Powrót do katalogu

STARLINK-31125

AktywnyŁącznośćVLEO
NORAD 58678·PAYLOAD·🇺🇸 United States

Wystrzelony Dec 29, 2023 z Cape Canaveral Space Force Station

Loading…

Następne Przeloty (najbliższe 24 godziny)

TLE

ŚwieżeSource: CelesTrak SupGP

Epoka: Sep 14, 2026, 22:42 UTC

1 58678C 23211M   26257.94631944  .00039493  00000+0  14307-2 0  2576
2 58678  42.9998  96.5474 0001409 276.2494 237.7079 15.27552729    11

Śledź STARLINK-31125 w czasie rzeczywistym z AllMySat

Download on the App Store